| time (UTC) | temp F | wind direction | speed knots | gust knots | rain 1hr in | rain 24hr in | rain mn in | humidity % | barometer mb |
| 20260505011422 | 74 | 235 | 5.2 | 9.6 | 0.00 | 0.00 | 0.00 | 49 | 1007.8 |
| 20260505010919 | 74 | 240 | 9.6 | 9.6 | 0.00 | 0.00 | 0.00 | 48 | 1007.8 |
| 20260505010415 | 74 | 249 | 4.3 | 14.8 | 0.00 | 0.00 | 0.00 | 48 | 1007.7 |
| 20260505005911 | 74 | 242 | 11.3 | 12.2 | 0.00 | 0.00 | 0.00 | 48 | 1007.7 |
| 20260505005408 | 74 | 246 | 4.3 | 18.2 | 0.00 | 0.00 | 0.00 | 48 | 1007.4 |
| 20260505004905 | 75 | 235 | 4.3 | 12.2 | 0.00 | 0.00 | 0.00 | 48 | 1007.6 |
| 20260505004402 | 75 | 247 | 6.1 | 10.4 | 0.00 | 0.00 | 0.00 | 47 | 1007.4 |
| 20260505003859 | 75 | 234 | 4.3 | 12.2 | 0.00 | 0.00 | 0.00 | 47 | 1007.5 |
| 20260505003356 | 75 | 243 | 7.0 | 13.9 | 0.00 | 0.00 | 0.00 | 47 | 1007.5 |
| 20260505002852 | 75 | 236 | 6.1 | 18.2 | 0.00 | 0.00 | 0.00 | 46 | 1007.2 |
| 20260505002349 | 75 | 225 | 8.7 | 11.3 | 0.00 | 0.00 | 0.00 | 46 | 1007.4 |
| 20260505001848 | 76 | 239 | 7.0 | 12.2 | 0.00 | 0.00 | 0.00 | 46 | 1007.5 |
| 20260505001344 | 76 | 235 | 4.3 | 10.4 | 0.00 | 0.00 | 0.00 | 46 | 1007.5 |
| 20260505000841 | 76 | 235 | 6.1 | 10.4 | 0.00 | 0.00 | 0.00 | 45 | 1007.4 |
| 20260505000339 | 76 | 240 | 4.3 | 9.6 | 0.00 | 0.00 | 0.00 | 45 | 1007.7 |
| 20260504235835 | 77 | 231 | 5.2 | 13.0 | 0.00 | 0.00 | 0.00 | 45 | 1007.8 |
| 20260504235333 | 77 | 240 | 7.8 | 13.9 | 0.00 | 0.00 | 0.00 | 44 | 1007.6 |
| 20260504234830 | 77 | 246 | 7.0 | 17.4 | 0.00 | 0.00 | 0.00 | 44 | 1007.6 |
| 20260504234327 | 77 | 252 | 6.1 | 14.8 | 0.00 | 0.00 | 0.00 | 44 | 1007.8 |
| 20260504233823 | 77 | 234 | 8.7 | 15.6 | 0.00 | 0.00 | 0.00 | 43 | 1007.9 |
| 20260504233319 | 78 | 235 | 4.3 | 17.4 | 0.00 | 0.00 | 0.00 | 43 | 1007.8 |
| 20260504232816 | 78 | 193 | 11.3 | 15.6 | 0.00 | 0.00 | 0.00 | 43 | 1007.8 |
| 20260504232313 | 78 | 251 | 9.6 | 13.0 | 0.00 | 0.00 | 0.00 | 43 | 1007.9 |
| 20260504231810 | 78 | 246 | 9.6 | 13.9 | 0.00 | 0.00 | 0.00 | 42 | 1007.9 |
| 20260504231306 | 78 | 237 | 9.6 | 13.0 | 0.00 | 0.00 | 0.00 | 43 | 1008.0 |
| 20260504230802 | 78 | 244 | 7.0 | 17.4 | 0.00 | 0.00 | 0.00 | 42 | 1007.9 |
| 20260504230301 | 78 | 236 | 17.4 | 23.5 | 0.00 | 0.00 | 0.00 | 41 | 1008.0 |
| 20260504225759 | 79 | 243 | 7.8 | 13.9 | 0.00 | 0.00 | 0.00 | 41 | 1008.0 |
| 20260504225255 | 79 | 228 | 7.8 | 15.6 | 0.00 | 0.00 | 0.00 | 41 | 1008.2 |
| 20260504224752 | 79 | 256 | 5.2 | 11.3 | 0.00 | 0.00 | 0.00 | 41 | 1008.1 |
| 20260504224250 | 79 | 242 | 12.2 | 12.2 | 0.00 | 0.00 | 0.00 | 41 | 1008.0 |
| 20260504223746 | 79 | 238 | 5.2 | 21.7 | 0.00 | 0.00 | 0.00 | 41 | 1008.1 |
| 20260504223241 | 79 | 228 | 15.6 | 15.6 | 0.00 | 0.00 | 0.00 | 41 | 1007.9 |
| 20260504222739 | 79 | 244 | 7.0 | 17.4 | 0.00 | 0.00 | 0.00 | 41 | 1008.1 |
| 20260504222235 | 79 | 248 | 5.2 | 18.2 | 0.00 | 0.00 | 0.00 | 41 | 1008.2 |
| 20260504221733 | 79 | 255 | 15.6 | 19.1 | 0.00 | 0.00 | 0.00 | 40 | 1008.0 |
| 20260504221230 | 79 | 217 | 6.1 | 11.3 | 0.00 | 0.00 | 0.00 | 41 | 1008.1 |
| 20260504220726 | 79 | 252 | 5.2 | 17.4 | 0.00 | 0.00 | 0.00 | 40 | 1008.2 |
| 20260504220224 | 79 | 235 | 11.3 | 14.8 | 0.00 | 0.00 | 0.00 | 40 | 1008.2 |
| 20260504215721 | 79 | 264 | 12.2 | 16.5 | 0.00 | 0.00 | 0.00 | 39 | 1008.0 |
| 20260504215218 | 80 | 235 | 12.2 | 15.6 | 0.00 | 0.00 | 0.00 | 40 | 1008.2 |
| 20260504214713 | 79 | 247 | 13.9 | 17.4 | 0.00 | 0.00 | 0.00 | 40 | 1008.2 |
| 20260504214210 | 80 | 230 | 8.7 | 19.1 | 0.00 | 0.00 | 0.00 | 40 | 1008.3 |
| 20260504213707 | 79 | 264 | 4.3 | 14.8 | 0.00 | 0.00 | 0.00 | 40 | 1008.1 |
| 20260504213203 | 79 | 245 | 8.7 | 17.4 | 0.00 | 0.00 | 0.00 | 40 | 1008.2 |
| 20260504212700 | 80 | 242 | 20.9 | 21.7 | 0.00 | 0.00 | 0.00 | 39 | 1008.1 |
| 20260504212157 | 80 | 255 | 7.0 | 14.8 | 0.00 | 0.00 | 0.00 | 38 | 1008.0 |
| 20260504211654 | 79 | 258 | 7.8 | 17.4 | 0.00 | 0.00 | 0.00 | 39 | 1008.1 |
| 20260504211150 | 80 | 234 | 11.3 | 16.5 | 0.00 | 0.00 | 0.00 | 38 | 1008.2 |
| 20260504210648 | 81 | 245 | 7.8 | 15.6 | 0.00 | 0.00 | 0.00 | 38 | 1008.3 |
| 20260504210144 | 80 | 253 | 7.8 | 18.2 | 0.00 | 0.00 | 0.00 | 36 | 1008.2 |
| 20260504205642 | 79 | 268 | 7.0 | 19.1 | 0.00 | 0.00 | 0.00 | 38 | 1008.3 |
| 20260504205139 | 80 | 267 | 4.3 | 19.1 | 0.00 | 0.00 | 0.00 | 36 | 1008.4 |
| 20260504204637 | 80 | 232 | 5.2 | 20.0 | 0.00 | 0.00 | 0.00 | 37 | 1008.3 |
| 20260504204136 | 80 | 247 | 12.2 | 20.9 | 0.00 | 0.00 | 0.00 | 36 | 1008.4 |
| 20260504203634 | 80 | 255 | 9.6 | 25.2 | 0.00 | 0.00 | 0.00 | 36 | 1008.5 |
| 20260504203132 | 79 | 273 | 12.2 | 15.6 | 0.00 | 0.00 | 0.00 | 37 | 1008.3 |
| 20260504202632 | 80 | 244 | 13.0 | 20.9 | 0.00 | 0.00 | 0.00 | 37 | 1008.6 |
| 20260504202129 | 80 | 255 | 8.7 | 14.8 | 0.00 | 0.00 | 0.00 | 37 | 1008.7 |
| 20260504201625 | 80 | 260 | 16.5 | 23.5 | 0.00 | 0.00 | 0.00 | 37 | 1008.7 |
| 20260504201124 | 80 | 255 | 6.1 | 15.6 | 0.00 | 0.00 | 0.00 | 37 | 1008.9 |
| 20260504200620 | 79 | 235 | 12.2 | 24.3 | 0.00 | 0.00 | 0.00 | 38 | 1009.1 |
| 20260504200117 | 80 | 233 | 11.3 | 21.7 | 0.00 | 0.00 | 0.00 | 37 | 1008.8 |
| 20260504195613 | 79 | 242 | 7.8 | 19.1 | 0.00 | 0.00 | 0.00 | 39 | 1008.9 |
| 20260504195109 | 79 | 235 | 14.8 | 19.1 | 0.00 | 0.00 | 0.00 | 37 | 1008.9 |
| 20260504194606 | 79 | 238 | 18.2 | 30.4 | 0.00 | 0.00 | 0.00 | 37 | 1009.0 |
| 20260504194101 | 79 | 256 | 11.3 | 28.7 | 0.00 | 0.00 | 0.00 | 38 | 1009.0 |
| 20260504193558 | 80 | 250 | 7.0 | 27.8 | 0.00 | 0.00 | 0.00 | 37 | 1009.2 |
| 20260504193057 | 80 | 233 | 7.8 | 18.2 | 0.00 | 0.00 | 0.00 | 38 | 1009.2 |
| 20260504192555 | 79 | 240 | 13.0 | 20.9 | 0.00 | 0.00 | 0.00 | 37 | 1009.2 |
| 20260504192052 | 79 | 254 | 9.6 | 19.1 | 0.00 | 0.00 | 0.00 | 38 | 1009.1 |
| 20260504191550 | 80 | 276 | 7.8 | 15.6 | 0.00 | 0.00 | 0.00 | 37 | 1009.2 |
| 20260504191046 | 79 | 246 | 7.8 | 19.1 | 0.00 | 0.00 | 0.00 | 36 | 1009.2 |
| 20260504190543 | 79 | 229 | 7.8 | 20.9 | 0.00 | 0.00 | 0.00 | 38 | 1009.2 |
| 20260504190039 | 79 | 244 | 24.3 | 29.5 | 0.00 | 0.00 | 0.00 | 36 | 1009.4 |
| 20260504185536 | 78 | 224 | 9.6 | 20.0 | 0.00 | 0.00 | 0.00 | 38 | 1009.6 |
| 20260504185032 | 79 | 253 | 13.9 | 20.9 | 0.00 | 0.00 | 0.00 | 39 | 1009.6 |
| 20260504184528 | 79 | 244 | 11.3 | 26.1 | 0.00 | 0.00 | 0.00 | 37 | 1009.5 |
| 20260504184023 | 79 | 229 | 8.7 | 22.6 | 0.00 | 0.00 | 0.00 | 38 | 1009.6 |
| 20260504183521 | 79 | 274 | 13.0 | 18.2 | 0.00 | 0.00 | 0.00 | 38 | 1009.6 |
| 20260504183019 | 79 | 265 | 18.2 | 20.0 | 0.00 | 0.00 | 0.00 | 38 | 1009.8 |
| 20260504182515 | 79 | 231 | 14.8 | 18.2 | 0.00 | 0.00 | 0.00 | 38 | 1009.8 |
| 20260504182013 | 79 | 241 | 11.3 | 27.8 | 0.00 | 0.00 | 0.00 | 39 | 1010.0 |
| 20260504181510 | 79 | 237 | 8.7 | 20.0 | 0.00 | 0.00 | 0.00 | 36 | 1009.9 |
| 20260504181008 | 79 | 220 | 13.0 | 16.5 | 0.00 | 0.00 | 0.00 | 36 | 1010.0 |
| 20260504180507 | 78 | 237 | 10.4 | 18.2 | 0.00 | 0.00 | 0.00 | 39 | 1010.3 |
| 20260504180005 | 78 | 247 | 13.9 | 19.1 | 0.00 | 0.00 | 0.00 | 39 | 1010.2 |
| 20260504175502 | 78 | 253 | 13.0 | 26.9 | 0.00 | 0.00 | 0.00 | 38 | 1010.1 |
| 20260504174959 | 78 | 239 | 9.6 | 22.6 | 0.00 | 0.00 | 0.00 | 40 | 1010.1 |
| 20260504174456 | 78 | 251 | 10.4 | 19.1 | 0.00 | 0.00 | 0.00 | 38 | 1010.4 |
| 20260504173954 | 78 | 216 | 13.9 | 18.2 | 0.00 | 0.00 | 0.00 | 37 | 1010.4 |
| 20260504173450 | 78 | 233 | 11.3 | 24.3 | 0.00 | 0.00 | 0.00 | 38 | 1010.5 |
| 20260504172947 | 78 | 225 | 20.9 | 26.1 | 0.00 | 0.00 | 0.00 | 38 | 1010.6 |
| 20260504172443 | 78 | 247 | 10.4 | 20.0 | 0.00 | 0.00 | 0.00 | 38 | 1010.4 |
| 20260504171940 | 77 | 256 | 5.2 | 21.7 | 0.00 | 0.00 | 0.00 | 38 | 1010.4 |
| 20260504171437 | 78 | 242 | 18.2 | 20.9 | 0.00 | 0.00 | 0.00 | 39 | 1010.5 |
| 20260504170934 | 78 | 242 | 9.6 | 32.2 | 0.00 | 0.00 | 0.00 | 39 | 1010.4 |
| 20260504170430 | 78 | 247 | 6.1 | 21.7 | 0.00 | 0.00 | 0.00 | 39 | 1010.4 |
| 20260504160349 | 77 | 258 | 7.8 | 19.1 | 0.00 | 0.00 | 0.00 | 40 | 1011.1 |
| 20260504150814 | 73 | 251 | 7.8 | 17.4 | 0.00 | 0.00 | 0.00 | 52 | 1011.7 |
| 20260504150311 | 73 | 240 | 11.3 | 13.9 | 0.00 | 0.00 | 0.00 | 52 | 1011.5 |
| 20260504141241 | 69 | 236 | 6.1 | 13.0 | 0.00 | 0.00 | 0.00 | 62 | 1012.2 |
| 20260504140737 | 69 | 233 | 7.8 | 13.9 | 0.00 | 0.00 | 0.00 | 63 | 1012.1 |
| 20260504140233 | 68 | 254 | 3.5 | 7.8 | 0.00 | 0.00 | 0.00 | 65 | 1012.1 |
| 20260504130702 | 64 | 255 | 5.2 | 12.2 | 0.00 | 0.00 | 0.00 | 73 | 1012.3 |
| 20260504130157 | 63 | 239 | 6.1 | 10.4 | 0.00 | 0.00 | 0.00 | 74 | 1012.0 |
| 20260504120122 | 59 | 242 | 2.6 | 5.2 | 0.00 | 0.00 | 0.00 | 79 | 1012.1 |
| 20260504110549 | 60 | 243 | 2.6 | 7.0 | 0.00 | 0.00 | 0.00 | 76 | 1011.5 |
| 20260504100511 | 61 | 259 | 1.7 | 7.8 | 0.00 | 0.00 | 0.00 | 73 | 1011.5 |
| 20260504081904 | 62 | 224 | 6.1 | 13.0 | 0.00 | 0.00 | 0.00 | 67 | 1011.5 |
| 20260504081401 | 62 | 236 | 7.0 | 11.3 | 0.00 | 0.00 | 0.00 | 67 | 1011.4 |
| 20260504080856 | 62 | 233 | 5.2 | 13.0 | 0.00 | 0.00 | 0.00 | 66 | 1011.6 |
| 20260504080354 | 62 | 261 | 4.3 | 7.8 | 0.00 | 0.00 | 0.00 | 67 | 1011.5 |
| 20260504070321 | 64 | 253 | 11.3 | 11.3 | 0.00 | 0.00 | 0.00 | 64 | 1012.3 |
| 20260504060241 | 64 | 242 | 7.0 | 10.4 | 0.00 | 0.00 | 0.00 | 63 | 1013.0 |
| 20260504050710 | 64 | 244 | 5.2 | 7.8 | 0.00 | 0.00 | 0.00 | 64 | 1013.2 |
| 20260504050206 | 64 | 257 | 6.1 | 6.1 | 0.00 | 0.00 | 0.00 | 63 | 1013.2 |
| 20260504045704 | 64 | 233 | 3.5 | 6.1 | 0.00 | 0.00 | 0.00 | 64 | 1013.4 |
| 20260504045204 | 64 | 237 | 4.3 | 11.3 | 0.00 | 0.00 | 0.00 | 64 | 1013.5 |
| 20260504044702 | 64 | 245 | 4.3 | 8.7 | 0.00 | 0.00 | 0.00 | 64 | 1013.5 |
| 20260504044159 | 64 | 240 | 4.3 | 7.0 | 0.00 | 0.00 | 0.00 | 64 | 1013.6 |
| 20260504043656 | 64 | 216 | 2.6 | 8.7 | 0.00 | 0.00 | 0.00 | 63 | 1013.5 |
| 20260504043153 | 64 | 293 | 2.6 | 7.0 | 0.00 | 0.00 | 0.00 | 63 | 1013.4 |
| 20260504042650 | 64 | 253 | 4.3 | 11.3 | 0.00 | 0.00 | 0.00 | 63 | 1013.3 |
| 20260504042147 | 64 | 229 | 4.3 | 7.8 | 0.00 | 0.00 | 0.00 | 63 | 1013.7 |
| 20260504041643 | 65 | 241 | 1.7 | 10.4 | 0.00 | 0.00 | 0.00 | 62 | 1013.4 |
| 20260504041138 | 65 | 245 | 3.5 | 7.8 | 0.00 | 0.00 | 0.00 | 62 | 1013.5 |
| 20260504040636 | 65 | 249 | 2.6 | 8.7 | 0.00 | 0.00 | 0.00 | 62 | 1013.5 |
| 20260504040133 | 64 | 242 | 3.5 | 7.0 | 0.00 | 0.00 | 0.00 | 62 | 1013.6 |
| 20260504035629 | 65 | 251 | 3.5 | 6.1 | 0.00 | 0.00 | 0.00 | 62 | 1013.6 |
| 20260504035126 | 64 | 239 | 4.3 | 7.8 | 0.00 | 0.00 | 0.00 | 63 | 1013.7 |
| 20260504034624 | 64 | 230 | 1.7 | 6.1 | 0.00 | 0.00 | 0.00 | 63 | 1013.5 |
| 20260504034121 | 64 | 208 | 1.7 | 4.3 | 0.00 | 0.00 | 0.00 | 64 | 1013.6 |
| 20260504033619 | 64 | 266 | 2.6 | 5.2 | 0.00 | 0.00 | 0.00 | 64 | 1013.7 |
| 20260504033116 | 64 | 249 | 2.6 | 6.1 | 0.00 | 0.00 | 0.00 | 64 | 1013.6 |
| 20260504032612 | 64 | 238 | 0.0 | 4.3 | 0.00 | 0.00 | 0.00 | 63 | 1013.6 |
| 20260504032109 | 65 | 229 | 2.6 | 5.2 | 0.00 | 0.00 | 0.00 | 63 | 1013.7 |
| 20260504031607 | 64 | 185 | 0.0 | 6.1 | 0.00 | 0.00 | 0.00 | 64 | 1013.6 |
| 20260504031103 | 64 | 237 | 7.8 | 7.8 | 0.00 | 0.00 | 0.00 | 63 | 1013.8 |
| 20260504030600 | 64 | 234 | 1.7 | 5.2 | 0.00 | 0.00 | 0.00 | 64 | 1013.7 |
| 20260504030056 | 64 | 241 | 2.6 | 4.3 | 0.00 | 0.00 | 0.00 | 64 | 1013.8 |
| 20260504025553 | 64 | 239 | 2.6 | 5.2 | 0.00 | 0.00 | 0.00 | 64 | 1013.9 |
| 20260504025050 | 64 | 238 | 1.7 | 5.2 | 0.00 | 0.00 | 0.00 | 64 | 1013.8 |
| 20260504024547 | 64 | 252 | 2.6 | 6.1 | 0.00 | 0.00 | 0.00 | 64 | 1013.9 |
| 20260504024044 | 65 | 204 | 1.7 | 6.1 | 0.00 | 0.00 | 0.00 | 64 | 1013.7 |
| 20260504023540 | 65 | 229 | 2.6 | 5.2 | 0.00 | 0.00 | 0.00 | 64 | 1013.6 |
| 20260504023036 | 65 | 241 | 1.7 | 7.0 | 0.00 | 0.00 | 0.00 | 63 | 1013.6 |
| 20260504022532 | 65 | 246 | 2.6 | 7.8 | 0.00 | 0.00 | 0.00 | 62 | 1013.9 |
| 20260504022029 | 65 | 247 | 3.5 | 6.1 | 0.00 | 0.00 | 0.00 | 62 | 1013.6 |
| 20260504021526 | 65 | 235 | 3.5 | 7.0 | 0.00 | 0.00 | 0.00 | 61 | 1013.6 |
| 20260504021023 | 66 | 231 | 3.5 | 6.1 | 0.00 | 0.00 | 0.00 | 60 | 1013.5 |
| 20260504020520 | 66 | 238 | 4.3 | 7.8 | 0.00 | 0.00 | 0.00 | 60 | 1013.6 |
| 20260504020017 | 66 | 243 | 3.5 | 6.1 | 0.00 | 0.00 | 0.00 | 59 | 1013.4 |
| 20260504015513 | 66 | 222 | 2.6 | 7.8 | 0.00 | 0.00 | 0.00 | 58 | 1013.6 |
| 20260504015009 | 66 | 269 | 2.6 | 6.1 | 0.00 | 0.00 | 0.00 | 58 | 1013.5 |
| 20260504014505 | 66 | 249 | 3.5 | 5.2 | 0.00 | 0.00 | 0.00 | 57 | 1013.3 |
| 20260504014003 | 67 | 246 | 2.6 | 6.1 | 0.00 | 0.00 | 0.00 | 57 | 1013.4 |
| 20260504013501 | 67 | 210 | 2.6 | 7.8 | 0.00 | 0.00 | 0.00 | 56 | 1013.3 |
| 20260504012956 | 67 | 238 | 4.3 | 6.1 | 0.00 | 0.00 | 0.00 | 55 | 1013.4 |
| 20260504012454 | 67 | 253 | 5.2 | 7.0 | 0.00 | 0.00 | 0.00 | 54 | 1013.4 |
| 20260504011952 | 68 | 245 | 5.2 | 10.4 | 0.00 | 0.00 | 0.00 | 54 | 1013.4 |